Regional Weather Roundup
Issued by NWS

Home | Current Version | Previous Version | Graphics & Text | Print | Product List | Glossary On
Versions: 1 2 3 4 5 6 7 8 9 10 11 12 13 14 15 16 17 18 19 20 21 22 23 24 25 26 27 28 29 30 31 32 33 34 35 36 37 38 39 40 41 42 43 44 45 46 47 48 49 50
832
ASUS45 KSLC 231510
RWRUT

UTAH REGIONAL WEATHER ROUNDUP
NATIONAL WEATHER SERVICE SALT LAKE CITY UT
800 AM MST THU FEB 23 2017

UTZ001>011-023>025-231600-

NORTHERN UTAH

CITY           SKY/WX    TMP DP  RH WIND       PRES   REMARKS
BRIGHAM CITY     N/A     32  25  74 SW6       29.71R WCI  26
DUGWAY         LGT SNOW  27  26  95 W12G18    29.76  VSB 5/8 WCI  17
HILL AFB       LGT SNOW  28  23  81 W12       29.69S WCI  18
LOGAN          CLOUDY    30  24  78 CALM      29.68R
OGDEN          CLOUDY    29  24  82 SW10      29.70R WCI  20
SALT LAKE CITY FLURRIES  30  25  81 SW7       29.72R WCI  23
TOOELE VALLEY  CLOUDY    30  23  74 S5        29.74R WCI  25
WENDOVER       CLOUDY    30  14  51 W14G20    29.76R WCI  20
HEBER CITY     CLOUDY    21  16  79 SW5       29.65R WCI  15
WEST JORDAN    CLOUDY    30  30 100 SW5       29.73R WCI  25

$$

UTZ011>015-024>027-231600-

CENTRAL/NORTHEAST UTAH

CITY           SKY/WX    TMP DP  RH WIND       PRES   REMARKS
PROVO AIRPORT  FLURRIES  28  23  80 W21       29.74R WCI  15
MOAB/CANYONLAN SUNNY     34  14  43 W22       29.66R WCI  22
DELTA          CLOUDY    23  21  93 S7        29.78R WCI  15
PRICE          CLOUDY    25  15  66 W8        29.64R WCI  16
ROOSEVELT      CLOUDY    27  19  74 W22G28    29.58R HAZE    WCI  12
VERNAL         SNOW      25  23  92 SE9       29.57R VSB 1/2 WCI  15

$$

UTZ013>016-019>022-027-231600-

SOUTHERN UTAH

CITY           SKY/WX    TMP DP  RH WIND       PRES   REMARKS
BRYCE CANYON   CLEAR     14   3  61 W7        29.72R WCI   4
CEDAR CITY     CLEAR     20  10  65 SW9       29.79R WCI   9
MILFORD        PTCLDY    17   8  67 S8        29.79R WCI   7
ST GEORGE      PTSUNNY   35  31  85 S3        29.89R
HANKSVILLE     CLEAR     34   5  29 NW3       29.74R
BLANDING       PTSUNNY   31  18  60 W9        29.77R WCI  23

$$

REGIONAL REPORTS     COLORADO/ARIZONA

CITY           SKY/WX    TMP DP  RH WIND       PRES   REMARKS
CRAIG, CO      SNOW      25  21  85 W22       29.52R VSB 1/4 WCI  10
GRAND JUNCTION CLOUDY    34  19  54 W8        29.63R WCI  27
RIFLE, CO      CLOUDY    31  22  69 W13G26    29.56R WCI  21
MONTROSE, CO   MOSUNNY   31  18  58 VRB7G18   29.64R WCI  24
CORTEZ, CO     CLOUDY    32  21  64 W13G22    29.70R WCI  22
COLORADO CITY    N/A     30  28  93 W3        29.86R
PAGE, AZ       CLEAR     37  11  34 W9G17     29.79R WCI  30
GRAND CANYON   CLOUDY    23  22  96 SW9       29.83R WCI  13
KINGMAN, AZ    CLEAR     37  18  46 SW7       29.90R WCI  32
FLAGSTAFF, AZ  SUNNY     26  14  60 W12       29.81R WCI  16

$$

REGIONAL REPORTS    NEVADA/IDAHO/WYOMING

CITY           SKY/WX    TMP DP  RH WIND       PRES   REMARKS
LAS VEGAS, NV  PTCLDY    45   9  23 NW10      29.91R
ELY, NY        CLOUDY    20  13  74 VRB3      29.81R
ELKO, NV       LGT SNOW  24  17  74 W8        29.86R WCI  15
POCATELLO, ID  CLOUDY    27  24  89 SW13      29.68R WCI  16
BURLEY, ID     SNOW      27  23  85 W17G24    29.70R VSB 1/2 WCI  14
FORT BRIDGER,  LGT SNOW  20  20 100 W16       29.60R VSB 1   WCI   6
EVANSTON, WY   CLOUDY    16  12  84 SW10      29.59R WCI   4
ROCK SPRINGS,  SNOW      21  18  86 N9        29.51R VSB 1/2 WCI  11

$$




USA.gov is the U.S. government's official web portal to all federal, state and local government web resources and services.